Time,TemperatureF,DewpointF,PressureIn,WindDirection,WindDirectionDegrees,WindSpeedMPH,WindSpeedGustMPH,Humidity,HourlyPrecipIn,Conditions,Clouds,dailyrainin,SoftwareType,DateUTC
2013-05-12 00:00:00,44.1,41.4,29.68,SW,226,0.0,8.0,90,0.00,,,0.00,Wunderground v.1.15,2013-05-12 04:00:00,
2013-05-12 00:05:00,43.8,41.1,29.68,SW,226,0.0,8.0,90,0.00,,,0.00,Wunderground v.1.15,2013-05-12 04:05:00,
2013-05-12 00:10:00,43.7,41.0,29.68,SW,226,0.0,8.0,90,0.00,,,0.00,Wunderground v.1.15,2013-05-12 04:10:00,
2013-05-12 00:15:00,43.6,41.1,29.68,SW,226,0.0,8.0,91,0.00,,,0.00,Wunderground v.1.15,2013-05-12 04:15:00,
2013-05-12 00:25:00,44.0,41.5,29.68,SW,226,0.0,8.0,91,0.00,,,0.00,Wunderground v.1.15,2013-05-12 04:25:00,
2013-05-12 00:30:00,44.4,42.2,29.68,SW,226,0.0,8.0,92,0.00,,,0.00,Wunderground v.1.15,2013-05-12 04:30:00,
2013-05-12 00:35:00,44.6,42.4,29.68,SW,226,0.0,8.0,92,0.00,,,0.00,Wunderground v.1.15,2013-05-12 04:35:00,
2013-05-12 09:05:00,45.8,37.6,29.75,SW,224,2.0,2.0,73,0.00,,,0.00,Wunderground v.1.15,2013-05-12 13:05:00,
2013-05-12 09:10:00,46.8,37.5,29.75,SSW,202,1.0,1.0,70,0.00,,,0.00,Wunderground v.1.15,2013-05-12 13:10:00,
2013-05-12 09:15:00,46.9,36.1,29.75,SSW,194,2.0,2.0,66,0.00,,,0.00,Wunderground v.1.15,2013-05-12 13:15:00,
2013-05-12 09:20:00,46.7,35.6,29.75,West,271,3.0,3.0,65,0.00,,,0.00,Wunderground v.1.15,2013-05-12 13:20:00,
2013-05-12 09:25:00,46.7,35.2,29.75,South,174,3.0,3.0,64,0.00,,,0.00,Wunderground v.1.15,2013-05-12 13:25:00,
2013-05-12 09:35:00,46.9,35.0,29.75,SW,234,2.0,3.0,63,0.00,,,0.00,Wunderground v.1.15,2013-05-12 13:35:00,
2013-05-12 09:40:00,46.7,34.8,29.75,WNW,294,2.0,4.0,63,0.00,,,0.00,Wunderground v.1.15,2013-05-12 13:40:00,
2013-05-12 09:45:00,46.9,36.5,29.74,SSE,157,2.0,4.0,67,0.00,,,0.00,Wunderground v.1.15,2013-05-12 13:45:00,
2013-05-12 09:50:00,47.1,35.9,29.74,SW,229,1.0,1.0,65,0.00,,,0.00,Wunderground v.1.15,2013-05-12 13:50:00,
2013-05-12 09:55:00,47.6,36.0,29.74,WNW,297,2.0,2.0,64,0.00,,,0.00,Wunderground v.1.15,2013-05-12 13:55:00,
2013-05-12 10:00:00,47.7,36.1,29.74,SSW,202,2.0,2.0,64,0.00,,,0.00,Wunderground v.1.15,2013-05-12 14:00:00,
2013-05-12 10:05:00,47.5,35.1,29.73,SSE,158,2.0,10.0,62,0.00,,,0.00,Wunderground v.1.15,2013-05-12 14:05:00,
2013-05-12 10:15:00,48.9,35.6,29.73,SW,217,2.0,10.0,60,0.00,,,0.00,Wunderground v.1.15,2013-05-12 14:15:00,
2013-05-12 10:25:00,48.4,35.1,29.73,SSW,212,2.0,10.0,60,0.00,,,0.00,Wunderground v.1.15,2013-05-12 14:25:00,
2013-05-12 10:30:00,49.0,35.7,29.73,SSW,196,3.0,3.0,60,0.00,,,0.00,Wunderground v.1.15,2013-05-12 14:30:00,
2013-05-12 10:35:00,48.9,35.6,29.73,South,182,3.0,10.0,60,0.00,,,0.00,Wunderground v.1.15,2013-05-12 14:35:00,
2013-05-12 10:40:00,47.8,35.0,29.74,West,259,4.0,10.0,61,0.00,,,0.00,Wunderground v.1.15,2013-05-12 14:40:00,
2013-05-12 10:45:00,44.9,36.1,29.74,West,274,5.0,10.0,71,0.00,,,0.01,Wunderground v.1.15,2013-05-12 14:45:00,
2013-05-12 10:50:00,43.3,36.9,29.74,West,265,4.0,10.0,78,0.00,,,0.01,Wunderground v.1.15,2013-05-12 14:50:00,
2013-05-12 11:00:00,44.5,39.3,29.74,West,277,3.0,3.0,82,0.00,,,0.01,Wunderground v.1.15,2013-05-12 15:00:00,
2013-05-12 11:05:00,44.9,39.1,29.74,WNW,295,3.0,4.0,80,0.00,,,0.01,Wunderground v.1.15,2013-05-12 15:05:00,
2013-05-12 11:10:00,44.5,38.4,29.74,WNW,292,3.0,3.0,79,0.00,,,0.01,Wunderground v.1.15,2013-05-12 15:10:00,
2013-05-12 11:15:00,45.6,39.8,29.74,WNW,290,2.0,10.0,80,0.00,,,0.01,Wunderground v.1.15,2013-05-12 15:15:00,
2013-05-12 11:20:00,46.9,39.7,29.73,WSW,244,2.0,10.0,76,0.00,,,0.01,Wunderground v.1.15,2013-05-12 15:20:00,
2013-05-12 11:25:00,48.7,40.4,29.73,SW,219,2.0,10.0,73,0.00,,,0.01,Wunderground v.1.15,2013-05-12 15:25:00,
2013-05-12 11:30:00,48.1,35.7,29.74,SW,224,2.0,10.0,62,0.00,,,0.01,Wunderground v.1.15,2013-05-12 15:30:00,
2013-05-12 11:35:00,48.7,35.8,29.74,West,259,4.0,10.0,61,0.00,,,0.01,Wunderground v.1.15,2013-05-12 15:35:00,
2013-05-12 11:45:00,49.1,35.8,29.74,WSW,252,4.0,6.0,60,0.00,,,0.01,Wunderground v.1.15,2013-05-12 15:45:00,
2013-05-12 11:50:00,49.4,35.2,29.74,WNW,286,5.0,13.0,58,0.00,,,0.01,Wunderground v.1.15,2013-05-12 15:50:00,
2013-05-12 11:55:00,49.2,35.5,29.74,SW,225,5.0,13.0,59,0.00,,,0.01,Wunderground v.1.15,2013-05-12 15:55:00,
2013-05-12 12:00:00,49.2,37.9,29.74,West,266,4.0,4.0,65,0.00,,,0.01,Wunderground v.1.15,2013-05-12 16:00:00,
2013-05-12 12:05:00,48.9,35.2,29.74,South,190,4.0,6.0,59,0.00,,,0.01,Wunderground v.1.15,2013-05-12 16:05:00,
2013-05-12 12:10:00,48.5,37.3,29.74,South,191,4.0,4.0,65,0.00,,,0.01,Wunderground v.1.15,2013-05-12 16:10:00,
2013-05-12 12:20:00,47.4,34.2,29.75,SW,232,5.0,5.0,60,0.00,,,0.01,Wunderground v.1.15,2013-05-12 16:20:00,
2013-05-12 12:25:00,47.7,35.7,29.74,SSW,198,5.0,10.0,63,0.00,,,0.01,Wunderground v.1.15,2013-05-12 16:25:00,
2013-05-12 12:30:00,48.8,35.5,29.74,SSW,210,4.0,10.0,60,0.00,,,0.01,Wunderground v.1.15,2013-05-12 16:30:00,
2013-05-12 12:35:00,50.0,37.5,29.74,East,89,4.0,10.0,62,0.00,,,0.01,Wunderground v.1.15,2013-05-12 16:35:00,
2013-05-12 12:40:00,49.9,36.1,29.75,South,187,4.0,4.0,59,0.00,,,0.01,Wunderground v.1.15,2013-05-12 16:40:00,
2013-05-12 12:45:00,49.2,35.5,29.75,SW,224,4.0,10.0,59,0.00,,,0.01,Wunderground v.1.15,2013-05-12 16:45:00,
2013-05-12 12:50:00,48.0,34.8,29.74,WNW,292,4.0,4.0,60,0.00,,,0.01,Wunderground v.1.15,2013-05-12 16:50:00,
2013-05-12 13:00:00,48.3,34.6,29.75,West,264,5.0,5.0,59,0.00,,,0.01,Wunderground v.1.15,2013-05-12 17:00:00,
2013-05-12 13:10:00,48.4,35.6,29.74,WSW,250,4.0,4.0,61,0.00,,,0.01,Wunderground v.1.15,2013-05-12 17:10:00,
2013-05-12 13:15:00,48.7,35.4,29.75,West,273,3.0,10.0,60,0.00,,,0.01,Wunderground v.1.15,2013-05-12 17:15:00,
2013-05-12 13:20:00,47.6,33.1,29.75,SSW,203,3.0,3.0,57,0.00,,,0.01,Wunderground v.1.15,2013-05-12 17:20:00,
2013-05-12 13:25:00,48.5,34.4,29.75,West,259,3.0,10.0,58,0.00,,,0.01,Wunderground v.1.15,2013-05-12 17:25:00,
2013-05-12 13:35:00,46.9,33.3,29.76,South,186,4.0,10.0,59,0.00,,,0.01,Wunderground v.1.15,2013-05-12 17:35:00,
2013-05-12 13:45:00,46.6,34.3,29.76,SSW,207,4.0,4.0,62,0.00,,,0.01,Wunderground v.1.15,2013-05-12 17:45:00,
2013-05-12 13:50:00,46.5,33.8,29.76,SW,227,4.0,7.0,61,0.00,,,0.01,Wunderground v.1.15,2013-05-12 17:50:00,
2013-05-12 13:55:00,46.3,34.0,29.76,South,190,4.0,4.0,62,0.00,,,0.01,Wunderground v.1.15,2013-05-12 17:55:00,
2013-05-12 14:00:00,47.7,36.5,29.76,NW,317,3.0,3.0,65,0.00,,,0.01,Wunderground v.1.15,2013-05-12 18:00:00,
2013-05-12 14:05:00,48.3,35.9,29.76,SSE,161,3.0,4.0,62,0.00,,,0.01,Wunderground v.1.15,2013-05-12 18:05:00,
2013-05-12 14:10:00,47.4,33.8,29.76,WSW,254,5.0,5.0,59,0.00,,,0.01,Wunderground v.1.15,2013-05-12 18:10:00,
2013-05-12 14:15:00,47.4,33.8,29.76,WSW,241,6.0,13.0,59,0.00,,,0.01,Wunderground v.1.15,2013-05-12 18:15:00,
2013-05-12 14:25:00,47.3,34.5,29.76,South,178,4.0,10.0,61,0.00,,,0.01,Wunderground v.1.15,2013-05-12 18:25:00,
2013-05-12 14:35:00,47.2,34.0,29.76,SSE,161,4.0,10.0,60,0.00,,,0.01,Wunderground v.1.15,2013-05-12 18:35:00,
2013-05-12 14:40:00,47.5,34.7,29.76,NW,304,4.0,10.0,61,0.00,,,0.01,Wunderground v.1.15,2013-05-12 18:40:00,
2013-05-12 14:45:00,47.6,34.4,29.76,SE,136,4.0,10.0,60,0.00,,,0.01,Wunderground v.1.15,2013-05-12 18:45:00,
2013-05-12 14:50:00,48.0,34.8,29.75,SSW,196,4.0,10.0,60,0.00,,,0.01,Wunderground v.1.15,2013-05-12 18:50:00,
2013-05-12 14:55:00,49.1,34.9,29.76,South,186,5.0,10.0,58,0.00,,,0.01,Wunderground v.1.15,2013-05-12 18:55:00,
2013-05-12 15:00:00,49.2,35.9,29.76,West,277,5.0,5.0,60,0.00,,,0.01,Wunderground v.1.15,2013-05-12 19:00:00,
2013-05-12 15:05:00,49.3,36.8,29.76,West,263,4.0,10.0,62,0.00,,,0.01,Wunderground v.1.15,2013-05-12 19:05:00,
2013-05-12 15:15:00,48.6,34.5,29.75,WSW,257,5.0,13.0,58,0.00,,,0.01,Wunderground v.1.15,2013-05-12 19:15:00,
2013-05-12 15:20:00,48.3,34.6,29.76,SSW,195,5.0,13.0,59,0.00,,,0.01,Wunderground v.1.15,2013-05-12 19:20:00,
2013-05-12 15:25:00,48.5,35.2,29.76,West,270,4.0,10.0,60,0.00,,,0.01,Wunderground v.1.15,2013-05-12 19:25:00,
2013-05-12 15:30:00,48.3,34.6,29.76,South,182,4.0,10.0,59,0.00,,,0.01,Wunderground v.1.15,2013-05-12 19:30:00,
2013-05-12 15:35:00,48.6,36.2,29.76,SSW,211,4.0,4.0,62,0.00,,,0.01,Wunderground v.1.15,2013-05-12 19:35:00,
2013-05-12 15:40:00,49.0,34.4,29.76,West,269,5.0,5.0,57,0.00,,,0.01,Wunderground v.1.15,2013-05-12 19:40:00,
2013-05-12 15:45:00,48.6,34.5,29.76,SW,216,5.0,5.0,58,0.00,,,0.01,Wunderground v.1.15,2013-05-12 19:45:00,
2013-05-12 15:55:00,47.7,34.1,29.77,SW,216,5.0,5.0,59,0.00,,,0.01,Wunderground v.1.15,2013-05-12 19:55:00,
2013-05-12 16:00:00,47.1,33.5,29.77,NW,324,5.0,5.0,59,0.00,,,0.01,Wunderground v.1.15,2013-05-12 20:00:00,
2013-05-12 16:05:00,45.6,34.5,29.78,WSW,252,5.0,10.0,65,0.00,,,0.01,Wunderground v.1.15,2013-05-12 20:05:00,
2013-05-12 16:10:00,43.5,34.7,29.78,WNW,294,4.0,10.0,71,0.00,,,0.01,Wunderground v.1.15,2013-05-12 20:10:00,
2013-05-12 16:15:00,42.1,34.4,29.79,West,271,3.0,10.0,74,0.00,,,0.01,Wunderground v.1.15,2013-05-12 20:15:00,
2013-05-12 16:20:00,41.5,34.8,29.79,West,277,2.0,2.0,77,0.00,,,0.01,Wunderground v.1.15,2013-05-12 20:20:00,
2013-05-12 16:25:00,41.1,34.8,29.79,NNW,344,3.0,3.0,78,0.00,,,0.01,Wunderground v.1.15,2013-05-12 20:25:00,
2013-05-12 16:35:00,40.5,35.1,29.80,WSW,254,4.0,4.0,81,0.00,,,0.01,Wunderground v.1.15,2013-05-12 20:35:00,
2013-05-12 16:40:00,40.2,35.4,29.80,West,262,4.0,10.0,83,0.00,,,0.01,Wunderground v.1.15,2013-05-12 20:40:00,
2013-05-12 16:45:00,40.1,35.7,29.81,West,279,3.0,10.0,84,0.00,,,0.01,Wunderground v.1.15,2013-05-12 20:45:00,
2013-05-12 16:50:00,40.1,36.0,29.80,WSW,248,3.0,3.0,85,0.00,,,0.01,Wunderground v.1.15,2013-05-12 20:50:00,
2013-05-12 16:55:00,40.3,36.1,29.80,WNW,296,4.0,6.0,85,0.00,,,0.01,Wunderground v.1.15,2013-05-12 20:55:00,
2013-05-12 17:00:00,40.2,35.8,29.80,SW,229,3.0,10.0,84,0.00,,,0.01,Wunderground v.1.15,2013-05-12 21:00:00,
2013-05-12 17:10:00,40.0,35.9,29.81,WNW,286,3.0,10.0,85,0.00,,,0.01,Wunderground v.1.15,2013-05-12 21:10:00,
2013-05-12 17:15:00,39.8,35.7,29.82,WSW,254,4.0,10.0,85,0.00,,,0.02,Wunderground v.1.15,2013-05-12 21:15:00,
2013-05-12 17:20:00,39.2,35.1,29.81,NW,309,5.0,13.0,85,0.00,,,0.02,Wunderground v.1.15,2013-05-12 21:20:00,
2013-05-12 17:25:00,39.6,36.3,29.81,WNW,288,4.0,13.0,88,0.00,,,0.02,Wunderground v.1.15,2013-05-12 21:25:00,
2013-05-12 17:30:00,40.4,37.1,29.81,ESE,116,2.0,2.0,88,0.00,,,0.02,Wunderground v.1.15,2013-05-12 21:30:00,
2013-05-12 17:35:00,40.9,37.6,29.81,SW,220,2.0,3.0,88,0.00,,,0.02,Wunderground v.1.15,2013-05-12 21:35:00,
2013-05-12 17:40:00,41.8,38.2,29.81,WSW,238,2.0,10.0,87,0.00,,,0.02,Wunderground v.1.15,2013-05-12 21:40:00,
2013-05-12 17:50:00,42.0,37.5,29.81,SSW,194,3.0,3.0,84,0.00,,,0.02,Wunderground v.1.15,2013-05-12 21:50:00,
2013-05-12 17:55:00,42.0,37.5,29.81,WNW,285,3.0,5.0,84,0.00,,,0.02,Wunderground v.1.15,2013-05-12 21:55:00,
2013-05-12 18:00:00,42.4,37.9,29.81,SW,227,2.0,2.0,84,0.00,,,0.02,Wunderground v.1.15,2013-05-12 22:00:00,
2013-05-12 18:05:00,42.7,37.6,29.81,WNW,284,3.0,3.0,82,0.00,,,0.02,Wunderground v.1.15,2013-05-12 22:05:00,
2013-05-12 18:10:00,42.8,37.4,29.81,West,273,3.0,10.0,81,0.00,,,0.02,Wunderground v.1.15,2013-05-12 22:10:00,
2013-05-12 18:15:00,42.6,36.9,29.81,South,181,3.0,10.0,80,0.00,,,0.02,Wunderground v.1.15,2013-05-12 22:15:00,
2013-05-12 18:20:00,42.5,36.8,29.81,WSW,247,3.0,3.0,80,0.00,,,0.02,Wunderground v.1.15,2013-05-12 22:20:00,
2013-05-12 18:25:00,42.8,36.7,29.80,WSW,257,3.0,10.0,79,0.00,,,0.02,Wunderground v.1.15,2013-05-12 22:25:00,
2013-05-12 18:35:00,43.6,36.5,29.81,West,259,3.0,10.0,76,0.00,,,0.02,Wunderground v.1.15,2013-05-12 22:35:00,
2013-05-12 18:45:00,43.2,35.5,29.81,WNW,296,6.0,10.0,74,0.00,,,0.02,Wunderground v.1.15,2013-05-12 22:45:00,
2013-05-12 18:50:00,43.0,35.6,29.81,West,267,4.0,4.0,75,0.00,,,0.02,Wunderground v.1.15,2013-05-12 22:50:00,
2013-05-12 18:55:00,42.9,35.5,29.81,WNW,297,3.0,10.0,75,0.00,,,0.02,Wunderground v.1.15,2013-05-12 22:55:00,
2013-05-12 19:00:00,42.5,35.5,29.81,SW,234,2.0,2.0,76,0.00,,,0.02,Wunderground v.1.15,2013-05-12 23:00:00,
2013-05-12 19:05:00,42.1,35.4,29.81,WNW,294,2.0,10.0,77,0.00,,,0.02,Wunderground v.1.15,2013-05-12 23:05:00,
2013-05-12 19:10:00,41.8,35.1,29.81,SW,236,2.0,2.0,77,0.00,,,0.02,Wunderground v.1.15,2013-05-12 23:10:00,
2013-05-12 19:15:00,41.7,35.3,29.81,SW,232,1.0,3.0,78,0.00,,,0.02,Wunderground v.1.15,2013-05-12 23:15:00,
2013-05-12 19:25:00,41.4,35.1,29.82,SW,235,2.0,10.0,78,0.00,,,0.02,Wunderground v.1.15,2013-05-12 23:25:00,
2013-05-12 19:30:00,41.4,35.1,29.82,South,182,2.0,2.0,78,0.00,,,0.02,Wunderground v.1.15,2013-05-12 23:30:00,
2013-05-12 19:35:00,40.8,35.1,29.83,West,281,3.0,5.0,80,0.00,,,0.03,Wunderground v.1.15,2013-05-12 23:35:00,
2013-05-12 19:40:00,40.0,34.9,29.82,West,275,3.0,10.0,82,0.15,,,0.04,Wunderground v.1.15,2013-05-12 23:40:00,
2013-05-12 19:45:00,39.4,34.7,29.82,WSW,243,3.0,10.0,83,0.08,,,0.04,Wunderground v.1.15,2013-05-12 23:45:00,
2013-05-12 19:50:00,39.3,34.9,29.82,West,266,1.0,1.0,84,0.05,,,0.04,Wunderground v.1.15,2013-05-12 23:50:00,
2013-05-12 19:55:00,39.3,35.2,29.83,West,268,1.0,10.0,85,0.00,,,0.04,Wunderground v.1.15,2013-05-12 23:55:00,
2013-05-12 20:05:00,39.3,35.5,29.83,West,265,1.0,10.0,86,0.00,,,0.04,Wunderground v.1.15,2013-05-13 00:05:00,
2013-05-12 20:10:00,39.1,35.3,29.84,WSW,238,2.0,10.0,86,0.00,,,0.04,Wunderground v.1.15,2013-05-13 00:10:00,
2013-05-12 20:15:00,37.7,33.6,29.84,West,280,3.0,10.0,85,0.23,,,0.06,Wunderground v.1.15,2013-05-13 00:15:00,
2013-05-12 20:20:00,36.9,33.1,29.84,WNW,294,4.0,4.0,86,0.09,,,0.07,Wunderground v.1.15,2013-05-13 00:20:00,
2013-05-12 20:25:00,36.6,33.1,29.84,West,278,3.0,10.0,87,0.09,,,0.07,Wunderground v.1.15,2013-05-13 00:25:00,
2013-05-12 20:30:00,36.6,33.1,29.84,West,271,3.0,3.0,87,0.05,,,0.07,Wunderground v.1.15,2013-05-13 00:30:00,
2013-05-12 20:35:00,36.8,33.6,29.84,West,268,3.0,5.0,88,0.04,,,0.07,Wunderground v.1.15,2013-05-13 00:35:00,
2013-05-12 20:45:00,37.0,33.8,29.84,West,274,2.0,10.0,88,0.00,,,0.07,Wunderground v.1.15,2013-05-13 00:45:00,
2013-05-12 20:50:00,37.1,33.9,29.84,West,271,1.0,10.0,88,0.00,,,0.07,Wunderground v.1.15,2013-05-13 00:50:00,
2013-05-12 20:55:00,37.3,34.1,29.84,West,269,1.0,10.0,88,0.00,,,0.07,Wunderground v.1.15,2013-05-13 00:55:00,
2013-05-12 21:00:00,37.4,34.2,29.84,West,273,1.0,1.0,88,0.00,,,0.07,Wunderground v.1.15,2013-05-13 01:00:00,
2013-05-12 21:05:00,37.5,34.3,29.85,WSW,258,1.0,10.0,88,0.00,,,0.07,Wunderground v.1.15,2013-05-13 01:05:00,
2013-05-12 21:10:00,37.6,34.4,29.85,WSW,254,1.0,1.0,88,0.00,,,0.07,Wunderground v.1.15,2013-05-13 01:10:00,
2013-05-12 21:20:00,37.7,34.5,29.85,SW,229,1.0,1.0,88,0.00,,,0.07,Wunderground v.1.15,2013-05-13 01:20:00,
2013-05-12 21:30:00,37.9,34.7,29.86,West,259,1.0,1.0,88,0.00,,,0.07,Wunderground v.1.15,2013-05-13 01:30:00,
2013-05-12 21:35:00,38.0,34.8,29.86,West,273,1.0,10.0,88,0.00,,,0.07,Wunderground v.1.15,2013-05-13 01:35:00,
2013-05-12 21:40:00,38.0,34.8,29.87,West,277,1.0,1.0,88,0.00,,,0.07,Wunderground v.1.15,2013-05-13 01:40:00,
2013-05-12 21:45:00,38.0,34.5,29.86,West,281,1.0,10.0,87,0.00,,,0.07,Wunderground v.1.15,2013-05-13 01:45:00,
2013-05-12 21:50:00,38.0,34.5,29.86,West,280,2.0,10.0,87,0.00,,,0.07,Wunderground v.1.15,2013-05-13 01:50:00,
2013-05-12 21:55:00,38.2,34.4,29.87,SW,223,2.0,10.0,86,0.00,,,0.07,Wunderground v.1.15,2013-05-13 01:55:00,
2013-05-12 22:00:00,38.2,34.1,29.87,SW,232,1.0,1.0,85,0.00,,,0.07,Wunderground v.1.15,2013-05-13 02:00:00,
2013-05-12 22:10:00,38.1,33.7,29.88,WNW,292,1.0,1.0,84,0.00,,,0.07,Wunderground v.1.15,2013-05-13 02:10:00,
2013-05-12 22:15:00,38.1,33.7,29.88,WNW,283,1.0,10.0,84,0.00,,,0.07,Wunderground v.1.15,2013-05-13 02:15:00,
2013-05-12 22:20:00,38.2,33.8,29.87,WNW,283,1.0,10.0,84,0.00,,,0.07,Wunderground v.1.15,2013-05-13 02:20:00,
2013-05-12 22:25:00,38.2,33.8,29.88,WNW,283,0.0,10.0,84,0.00,,,0.07,Wunderground v.1.15,2013-05-13 02:25:00,
2013-05-12 22:30:00,38.2,33.8,29.88,WNW,283,0.0,10.0,84,0.00,,,0.07,Wunderground v.1.15,2013-05-13 02:30:00,
2013-05-12 22:35:00,38.3,33.6,29.88,West,273,0.0,10.0,83,0.00,,,0.07,Wunderground v.1.15,2013-05-13 02:35:00,
2013-05-12 22:40:00,38.2,33.5,29.88,West,276,1.0,10.0,83,0.00,,,0.07,Wunderground v.1.15,2013-05-13 02:40:00,
2013-05-12 22:45:00,38.2,33.2,29.88,West,271,2.0,10.0,82,0.00,,,0.07,Wunderground v.1.15,2013-05-13 02:45:00,
2013-05-12 22:55:00,38.4,32.5,29.88,West,263,2.0,10.0,79,0.00,,,0.07,Wunderground v.1.15,2013-05-13 02:55:00,
2013-05-12 23:00:00,38.5,32.6,29.88,WNW,287,2.0,2.0,79,0.00,,,0.07,Wunderground v.1.15,2013-05-13 03:00:00,
2013-05-12 23:05:00,38.6,32.6,29.88,NW,306,1.0,3.0,79,0.00,,,0.07,Wunderground v.1.15,2013-05-13 03:05:00,
2013-05-12 23:10:00,38.6,32.3,29.89,West,273,1.0,10.0,78,0.00,,,0.07,Wunderground v.1.15,2013-05-13 03:10:00,
2013-05-12 23:15:00,38.7,32.1,29.89,West,262,3.0,10.0,77,0.00,,,0.07,Wunderground v.1.15,2013-05-13 03:15:00,
2013-05-12 23:20:00,38.7,32.4,29.89,WSW,248,3.0,3.0,78,0.00,,,0.07,Wunderground v.1.15,2013-05-13 03:20:00,
2013-05-12 23:25:00,38.6,32.3,29.89,NW,304,1.0,10.0,78,0.00,,,0.07,Wunderground v.1.15,2013-05-13 03:25:00,
2013-05-12 23:35:00,38.5,32.2,29.89,West,271,2.0,10.0,78,0.00,,,0.07,Wunderground v.1.15,2013-05-13 03:35:00,
2013-05-12 23:40:00,38.5,31.9,29.89,South,175,2.0,2.0,77,0.00,,,0.07,Wunderground v.1.15,2013-05-13 03:40:00,
2013-05-12 23:45:00,38.5,31.9,29.89,WSW,241,2.0,10.0,77,0.00,,,0.07,Wunderground v.1.15,2013-05-13 03:45:00,
2013-05-12 23:50:00,38.4,31.8,29.89,WSW,241,2.0,10.0,77,0.00,,,0.07,Wunderground v.1.15,2013-05-13 03:50:00,
2013-05-12 23:55:00,38.3,31.7,29.89,WSW,250,2.0,10.0,77,0.00,,,0.07,Wunderground v.1.15,2013-05-13 03:55:00,